TimeEDT,TemperatureF,Dew PointF,Humidity,Sea Level PressureIn,VisibilityMPH,Wind Direction,Wind SpeedMPH,Gust SpeedMPH,PrecipitationIn,Events,Conditions,WindDirDegrees,DateUTC
12:54 AM,35.1,12.9,40,30.17,10.0,West,8.1,16.1,N/A,,Clear,280,2013-04-04 04:54:00
1:54 AM,34.0,12.9,42,30.19,10.0,West,11.5,-,N/A,,Clear,280,2013-04-04 05:54:00
2:54 AM,33.1,12.9,43,30.19,10.0,West,10.4,-,N/A,,Clear,270,2013-04-04 06:54:00
3:54 AM,32.0,12.9,45,30.19,10.0,West,8.1,-,N/A,,Clear,270,2013-04-04 07:54:00
4:54 AM,30.9,12.9,47,30.21,10.0,WNW,5.8,-,N/A,,Clear,290,2013-04-04 08:54:00
5:54 AM,30.9,14.0,50,30.24,10.0,West,5.8,-,N/A,,Clear,270,2013-04-04 09:54:00
6:54 AM,30.9,15.1,52,30.28,10.0,SW,3.5,-,N/A,,Clear,230,2013-04-04 10:54:00
7:54 AM,35.1,15.1,44,30.29,10.0,WNW,8.1,-,N/A,,Clear,290,2013-04-04 11:54:00
8:54 AM,37.9,12.0,35,30.30,10.0,WNW,13.8,19.6,N/A,,Clear,300,2013-04-04 12:54:00
9:54 AM,41.0,10.0,28,30.28,10.0,NW,12.7,18.4,N/A,,Clear,310,2013-04-04 13:54:00
10:54 AM,44.1,10.0,25,30.26,10.0,WNW,9.2,19.6,N/A,,Clear,290,2013-04-04 14:54:00
11:54 AM,46.9,9.0,21,30.24,10.0,WNW,9.2,18.4,N/A,,Clear,300,2013-04-04 15:54:00
12:54 PM,51.1,8.1,18,30.21,10.0,West,9.2,18.4,N/A,,Clear,260,2013-04-04 16:54:00
1:54 PM,53.1,9.0,17,30.18,10.0,SW,13.8,18.4,N/A,,Clear,230,2013-04-04 17:54:00
2:54 PM,55.0,10.0,17,30.15,10.0,SW,11.5,21.9,N/A,,Clear,230,2013-04-04 18:54:00
3:54 PM,55.9,10.0,16,30.11,10.0,West,11.5,-,N/A,,Clear,260,2013-04-04 19:54:00
4:54 PM,55.9,12.0,18,30.08,10.0,WSW,12.7,18.4,N/A,,Clear,250,2013-04-04 20:54:00
5:54 PM,55.9,12.9,18,30.06,10.0,WSW,11.5,-,N/A,,Clear,240,2013-04-04 21:54:00
6:54 PM,53.1,12.9,20,30.06,10.0,SW,12.7,23.0,N/A,,Clear,230,2013-04-04 22:54:00
7:54 PM,51.1,14.0,23,30.06,10.0,SSW,6.9,-,N/A,,Clear,210,2013-04-04 23:54:00
8:54 PM,50.0,17.1,27,30.07,10.0,SSW,10.4,-,N/A,,Clear,210,2013-04-05 00:54:00
9:54 PM,46.9,19.0,33,30.06,10.0,SSW,12.7,21.9,N/A,,Clear,210,2013-04-05 01:54:00
10:54 PM,45.0,21.0,39,30.05,10.0,SSW,11.5,17.3,N/A,,Clear,210,2013-04-05 02:54:00
11:54 PM,43.0,21.0,42,30.04,10.0,SSW,10.4,-,N/A,,Clear,210,2013-04-05 03:54:00